Simultaneous Nadir Overpasses (SNOs) Predictions

Prediction of SNOs between GOES-15 and NPP Satellite Orbit:

Table of predicted SNOs for the next 14.0 days since TLE Epoch: 7/29/2023
Index Date Time (GOES-15) GOES-15 Lat,Lon NPP Lat,Lon Distance(km) Time Diff (sec)
1 07/30/2023 14:42:28 -0.40, 161.58 -0.32, 161.28 35.35 80
2 08/01/2023 03:04:31 0.43, 160.05 -0.52, 155.89 474.03 80
3 08/02/2023 02:43:09 0.41, 159.05 0.69, 160.38 150.66 80
4 08/03/2023 15:07:43 -0.44, 157.53 0.15, 155.03 286.20 80
5 08/04/2023 14:46:21 -0.41, 156.54 -1.06, 159.51 338.47 80
6 08/06/2023 03:11:03 0.44, 154.99 0.23, 154.13 99.16 80
7 08/08/2023 15:11:35 -0.44, 152.47 -0.61, 153.26 89.95 80
8 08/10/2023 03:36:17 0.47, 150.93 -0.21, 147.87 347.82 80
9 08/11/2023 03:14:56 0.45, 149.92 1.00, 152.36 277.47 80
